Regional Weather Roundup
Issued by NWS Sioux Falls, SD

Home | Current Version | Previous Version | Graphics & Text | Print | Product List | Glossary Off
Versions: 1 2 3 4 5 6 7 8 9 10 11 12 13 14 15 16 17 18 19 20 21 22 23 24 25 26 27 28 29 30 31 32 33 34 35 36 37 38 39 40 41 42 43 44 45 46 47 48 49 50

000
ASUS43 KFSD 270402
RWRFSD

WEATHER ROUNDUP FOR SE SOUTH DAKOTA/SW MINNESOTA/NW IOWA
NATIONAL WEATHER SERVICE SIOUX FALLS SD
1100 PM CDT MON JUN 26 2017

NOTE: "FAIR" INDICATES FEW OR NO CLOUDS BELOW 12,000 FEET WITH NO
SIGNIFICANT WEATHER AND OR OBSTRUCTIONS TO VISIBILITY.


SDZ038>040-050-052>070-270500-
SOUTHEAST SOUTH DAKOTA

CITY           SKY/WX    TMP DP  RH WIND       PRES   REMARKS
BROOKINGS      CLEAR     59  39  47 CALM      30.14S
CHAMBERLAIN    CLEAR     57  45  64 E7        30.10F
HURON          CLEAR     57  43  59 SE7       30.12R
MADISON        FAIR      54  45  71 CALM      30.16R
MITCHELL       CLEAR     59  42  53 SE5       30.14R
SIOUX FALLS    CLEAR     57  47  69 CALM      30.15R
WINNER         FAIR      58  39  49 SE10      30.10S
YANKTON        CLEAR     61  42  49 E3        30.15
$$

MNZ071-072-080-081-089-090-097-098-270500-
SOUTHWEST MINNESOTA

CITY           SKY/WX    TMP DP  RH WIND       PRES   REMARKS
FAIRMONT       CLEAR     55  46  71 CALM      30.15R
JACKSON        CLEAR     54  45  71 CALM      30.16S
LUVERNE        CLEAR     54  41  62 CALM      30.15S
MARSHALL       CLEAR     56  46  69 S3        30.14S
MONTEVIDEO     CLEAR     57  37  47 CALM      30.13S
PIPESTONE      CLEAR     59  39  47 SE3       30.15S
REDWOOD FALLS  CLEAR     61  41  47 CALM      30.13R
TRACY          CLEAR     57  45  63 CALM      30.14F
WINDOM         CLEAR     54  43  66 CALM      30.15S
WORTHINGTON    CLEAR     58  43  57 CALM      30.16S
$$

IAZ001>003-012>014-020>022-031-032-NEZ013-014-SDZ071-270500-
NORTHWEST IOWA

CITY           SKY/WX    TMP DP  RH WIND       PRES   REMARKS
CHEROKEE       CLEAR     52  46  81 CALM      30.15S
DENISON        CLEAR     55  48  76 CALM      30.17R
ESTHERVILLE    CLEAR     52  48  86 SW3       30.15R
LE MARS        CLEAR     54  48  82 CALM      30.16R
ORANGE CITY    CLEAR     63  45  51 CALM      30.15S
SHELDON        CLEAR     54  46  76 E5        30.14S
SIOUX CITY     CLEAR     62  41  46 E5        30.14R
SPENCER        CLEAR     54  45  71 CALM      30.16R
STORM LAKE     CLEAR     55  43  62 E6        30.16S
$$

ABBREVIATIONS USED IN REMARKS
   TC - TEMPERATURE IN CELSIUS
  WCI - WIND CHILL INDEX
   HX - HEAT INDEX
  VSB - VISIBILITY





USA.gov is the U.S. government's official web portal to all federal, state and local government web resources and services.